Time,TemperatureF,DewpointF,PressureIn,WindDirection,WindDirectionDegrees,WindSpeedMPH,WindSpeedGustMPH,Humidity,HourlyPrecipIn,Conditions,Clouds,dailyrainin,SoftwareType,DateUTC
2013-03-26 00:08:00,35.1,32.5,29.57,SW,225,9.4,-999.0,90,-99.99,,,0.00,Acu-Link.com,2013-03-26 04:08:00,
2013-03-26 00:23:00,35.1,32.7,29.57,WSW,247,6.3,-999.0,91,-99.99,,,0.00,Acu-Link.com,2013-03-26 04:23:00,
2013-03-26 00:38:00,35.6,32.4,29.57,West,270,11.4,-999.0,88,-99.99,,,0.00,Acu-Link.com,2013-03-26 04:38:00,
2013-03-26 00:53:00,35.2,32.3,29.59,SSW,202,3.2,-999.0,89,-99.99,,,0.00,Acu-Link.com,2013-03-26 04:53:00,
2013-03-26 01:09:00,35.1,32.5,29.58,North,0,2.2,-999.0,90,-99.99,,,0.00,Acu-Link.com,2013-03-26 05:09:00,
2013-03-26 01:24:00,34.9,32.5,29.59,West,270,4.7,-999.0,91,-99.99,,,0.00,Acu-Link.com,2013-03-26 05:24:00,
2013-03-26 01:39:00,35.1,32.7,29.59,West,270,4.2,-999.0,91,-99.99,,,0.00,Acu-Link.com,2013-03-26 05:39:00,
2013-03-26 01:54:00,35.1,32.7,29.59,South,180,4.7,-999.0,91,-99.99,,,0.00,Acu-Link.com,2013-03-26 05:54:00,
2013-03-26 02:10:00,35.4,33.3,29.59,SSW,202,2.2,-999.0,92,-99.99,,,0.00,Acu-Link.com,2013-03-26 06:10:00,
2013-03-26 02:25:00,35.2,33.4,29.60,West,270,2.2,-999.0,93,-99.99,,,0.00,Acu-Link.com,2013-03-26 06:25:00,
2013-03-26 02:40:00,35.4,33.6,29.60,South,180,6.8,-999.0,93,-99.99,,,0.00,Acu-Link.com,2013-03-26 06:40:00,
2013-03-26 02:56:00,35.6,33.8,29.60,SSW,202,3.7,-999.0,93,-99.99,,,0.00,Acu-Link.com,2013-03-26 06:56:00,
2013-03-26 03:26:00,35.8,35.3,29.60,West,270,3.2,-999.0,98,-99.99,,,0.00,Acu-Link.com,2013-03-26 07:26:00,
2013-03-26 03:41:00,35.8,35.0,29.60,SSW,202,4.7,-999.0,97,-99.99,,,0.00,Acu-Link.com,2013-03-26 07:41:00,
2013-03-26 03:56:00,35.6,34.3,29.60,SSW,202,3.2,-999.0,95,-99.99,,,0.00,Acu-Link.com,2013-03-26 07:56:00,
2013-03-26 04:12:00,35.4,34.4,29.61,SSW,202,7.3,-999.0,96,-99.99,,,0.00,Acu-Link.com,2013-03-26 08:12:00,
2013-03-26 04:27:00,36.5,34.9,29.61,South,180,5.3,-999.0,94,-99.99,,,0.00,Acu-Link.com,2013-03-26 08:27:00,
2013-03-26 04:42:00,35.1,33.8,29.60,South,180,3.2,-999.0,95,-99.99,,,0.00,Acu-Link.com,2013-03-26 08:42:00,
2013-03-26 04:57:00,34.5,33.5,29.60,North,0,2.2,-999.0,96,-99.99,,,0.00,Acu-Link.com,2013-03-26 08:57:00,
2013-03-26 05:13:00,34.3,33.5,29.60,WSW,247,4.2,-999.0,97,-99.99,,,0.00,Acu-Link.com,2013-03-26 09:13:00,
2013-03-26 05:28:00,34.0,33.5,29.62,NW,315,2.7,-999.0,98,-99.99,,,0.00,Acu-Link.com,2013-03-26 09:28:00,
2013-03-26 05:43:00,33.6,33.1,29.62,SW,225,2.2,-999.0,98,-99.99,,,0.00,Acu-Link.com,2013-03-26 09:43:00,
2013-03-26 05:59:00,33.4,32.9,29.62,South,180,1.7,-999.0,98,-99.99,,,0.00,Acu-Link.com,2013-03-26 09:59:00,
2013-03-26 06:14:00,32.7,32.2,29.63,SE,135,1.1,-999.0,98,-99.99,,,0.00,Acu-Link.com,2013-03-26 10:14:00,
2013-03-26 06:29:00,32.7,32.2,29.63,ESE,112,1.7,-999.0,98,-99.99,,,0.00,Acu-Link.com,2013-03-26 10:29:00,
2013-03-26 06:44:00,33.3,32.8,29.63,NW,315,1.7,-999.0,98,-99.99,,,0.00,Acu-Link.com,2013-03-26 10:44:00,
2013-03-26 07:00:00,32.9,32.4,29.64,NW,315,2.7,-999.0,98,-99.99,,,0.00,Acu-Link.com,2013-03-26 11:00:00,
2013-03-26 07:15:00,32.4,31.9,29.63,West,270,3.2,-999.0,98,-99.99,,,0.00,Acu-Link.com,2013-03-26 11:15:00,
2013-03-26 07:31:00,32.7,32.2,29.64,West,270,4.2,-999.0,98,-99.99,,,0.00,Acu-Link.com,2013-03-26 11:31:00,
2013-03-26 07:46:00,34.9,34.4,29.64,West,270,2.7,-999.0,98,-99.99,,,0.00,Acu-Link.com,2013-03-26 11:46:00,
2013-03-26 08:17:00,34.9,34.4,29.66,SSE,157,3.2,-999.0,98,-99.99,,,0.00,Acu-Link.com,2013-03-26 12:17:00,
2013-03-26 08:32:00,36.0,35.5,29.67,NW,315,3.7,-999.0,98,-99.99,,,0.00,Acu-Link.com,2013-03-26 12:32:00,
2013-03-26 08:47:00,37.0,36.5,29.67,SSW,202,5.8,-999.0,98,-99.99,,,0.00,Acu-Link.com,2013-03-26 12:47:00,
2013-03-26 09:02:00,37.8,37.0,29.69,SSW,202,2.7,-999.0,97,-99.99,,,0.00,Acu-Link.com,2013-03-26 13:02:00,
2013-03-26 09:17:00,39.4,38.4,29.69,SSW,202,2.7,-999.0,96,-99.99,,,0.00,Acu-Link.com,2013-03-26 13:17:00,
2013-03-26 09:33:00,40.1,38.5,29.69,WSW,247,6.8,-999.0,94,-99.99,,,0.00,Acu-Link.com,2013-03-26 13:33:00,
2013-03-26 09:48:00,41.7,39.8,29.70,South,180,4.2,-999.0,93,-99.99,,,0.00,Acu-Link.com,2013-03-26 13:48:00,
2013-03-26 10:03:00,40.8,39.2,29.71,SW,225,8.3,-999.0,94,-99.99,,,0.00,Acu-Link.com,2013-03-26 14:03:00,
2013-03-26 10:18:00,41.7,39.3,29.71,SSW,202,3.2,-999.0,91,-99.99,,,0.00,Acu-Link.com,2013-03-26 14:18:00,
2013-03-26 10:33:00,39.4,36.7,29.73,WSW,247,5.8,-999.0,90,-99.99,,,0.00,Acu-Link.com,2013-03-26 14:33:00,
2013-03-26 10:49:00,40.3,38.2,29.73,SSW,202,3.7,-999.0,92,-99.99,,,0.00,Acu-Link.com,2013-03-26 14:49:00,
2013-03-26 11:04:00,40.6,37.6,29.74,SSW,202,2.2,-999.0,89,-99.99,,,0.00,Acu-Link.com,2013-03-26 15:04:00,
2013-03-26 11:19:00,39.9,36.6,29.75,SW,225,4.7,-999.0,88,-99.99,,,0.00,Acu-Link.com,2013-03-26 15:19:00,
2013-03-26 11:34:00,42.3,37.2,29.75,SW,225,2.2,-999.0,82,-99.99,,,0.00,Acu-Link.com,2013-03-26 15:34:00,
2013-03-26 11:50:00,41.7,36.9,29.75,West,270,5.8,-999.0,83,-99.99,,,0.00,Acu-Link.com,2013-03-26 15:50:00,
2013-03-26 12:05:00,41.4,35.7,29.76,WNW,292,3.2,-999.0,80,-99.99,,,0.00,Acu-Link.com,2013-03-26 16:05:00,
2013-03-26 12:20:00,41.5,36.4,29.76,SSW,202,3.7,-999.0,82,-99.99,,,0.00,Acu-Link.com,2013-03-26 16:20:00,
2013-03-26 12:36:00,41.4,35.7,29.76,SSW,202,6.8,-999.0,80,-99.99,,,0.00,Acu-Link.com,2013-03-26 16:36:00,
2013-03-26 12:51:00,41.5,36.1,29.76,SSE,157,4.7,-999.0,81,-99.99,,,0.00,Acu-Link.com,2013-03-26 16:51:00,
2013-03-26 13:06:00,43.3,37.6,29.76,West,270,2.2,-999.0,80,-99.99,,,0.00,Acu-Link.com,2013-03-26 17:06:00,
2013-03-26 13:21:00,44.6,36.8,29.77,ENE,67,3.2,-999.0,74,-99.99,,,0.00,Acu-Link.com,2013-03-26 17:21:00,
2013-03-26 13:51:00,42.8,35.4,29.76,West,270,4.7,-999.0,75,-99.99,,,0.00,Acu-Link.com,2013-03-26 17:51:00,
2013-03-26 14:06:00,42.6,35.9,29.77,SW,225,3.7,-999.0,77,-99.99,,,0.00,Acu-Link.com,2013-03-26 18:06:00,
2013-03-26 14:21:00,41.7,36.6,29.76,WNW,292,1.7,-999.0,82,-99.99,,,0.00,Acu-Link.com,2013-03-26 18:21:00,
2013-03-26 14:37:00,44.4,38.0,29.76,WNW,292,3.7,-999.0,78,-99.99,,,0.00,Acu-Link.com,2013-03-26 18:37:00,
2013-03-26 14:52:00,44.6,35.4,29.76,West,270,5.8,-999.0,70,-99.99,,,0.00,Acu-Link.com,2013-03-26 18:52:00,
2013-03-26 15:07:00,43.0,35.6,29.76,SSW,202,3.7,-999.0,75,-99.99,,,0.00,Acu-Link.com,2013-03-26 19:07:00,
2013-03-26 15:22:00,42.6,35.9,29.76,SSW,202,8.9,-999.0,77,-99.99,,,0.00,Acu-Link.com,2013-03-26 19:22:00,
2013-03-26 15:53:00,43.7,35.3,29.76,WSW,247,4.2,-999.0,72,-99.99,,,0.00,Acu-Link.com,2013-03-26 19:53:00,
2013-03-26 16:08:00,42.6,36.2,29.77,SW,225,5.8,-999.0,78,-99.99,,,0.00,Acu-Link.com,2013-03-26 20:08:00,
2013-03-26 16:23:00,43.2,35.5,29.77,WSW,247,6.3,-999.0,74,-99.99,,,0.00,Acu-Link.com,2013-03-26 20:23:00,
2013-03-26 16:38:00,43.3,36.3,29.78,West,270,3.7,-999.0,76,-99.99,,,0.00,Acu-Link.com,2013-03-26 20:38:00,
2013-03-26 16:54:00,42.8,35.8,29.78,ESE,112,4.2,-999.0,76,-99.99,,,0.00,Acu-Link.com,2013-03-26 20:54:00,
2013-03-26 17:09:00,42.8,37.7,29.78,SSW,202,13.0,-999.0,82,-99.99,,,0.00,Acu-Link.com,2013-03-26 21:09:00,
2013-03-26 17:24:00,43.0,37.9,29.80,SSW,202,3.2,-999.0,82,-99.99,,,0.00,Acu-Link.com,2013-03-26 21:24:00,
2013-03-26 17:39:00,41.9,38.0,29.80,West,270,3.7,-999.0,86,-99.99,,,0.00,Acu-Link.com,2013-03-26 21:39:00,
2013-03-26 17:55:00,42.1,36.7,29.80,West,270,2.7,-999.0,81,-99.99,,,0.00,Acu-Link.com,2013-03-26 21:55:00,
2013-03-26 18:10:00,41.7,36.9,29.80,SSW,202,5.8,-999.0,83,-99.99,,,0.00,Acu-Link.com,2013-03-26 22:10:00,
2013-03-26 18:25:00,41.4,36.9,29.82,SW,225,3.2,-999.0,84,-99.99,,,0.00,Acu-Link.com,2013-03-26 22:25:00,
2013-03-26 18:40:00,40.8,36.3,29.83,West,270,4.2,-999.0,84,-99.99,,,0.00,Acu-Link.com,2013-03-26 22:40:00,
2013-03-26 18:55:00,40.1,36.8,29.84,SW,225,6.3,-999.0,88,-99.99,,,0.00,Acu-Link.com,2013-03-26 22:55:00,
2013-03-26 19:26:00,38.5,37.7,29.84,SW,225,8.9,-999.0,97,-99.99,,,0.00,Acu-Link.com,2013-03-26 23:26:00,
2013-03-26 19:41:00,37.8,37.3,29.85,WNW,292,0.0,-999.0,98,-99.99,,,0.00,Acu-Link.com,2013-03-26 23:41:00,
2013-03-26 19:57:00,37.4,36.9,29.86,SSW,202,7.3,-999.0,98,-99.99,,,0.00,Acu-Link.com,2013-03-26 23:57:00,
2013-03-26 20:12:00,37.4,36.6,29.86,SW,225,5.8,-999.0,97,-99.99,,,0.00,Acu-Link.com,2013-03-27 00:12:00,
2013-03-26 20:27:00,37.4,35.8,29.86,WSW,247,4.7,-999.0,94,-99.99,,,0.00,Acu-Link.com,2013-03-27 00:27:00,
2013-03-26 20:43:00,36.7,34.0,29.87,West,270,5.3,-999.0,90,-99.99,,,0.00,Acu-Link.com,2013-03-27 00:43:00,
2013-03-26 20:58:00,36.5,34.7,29.87,SSW,202,2.2,-999.0,93,-99.99,,,0.00,Acu-Link.com,2013-03-27 00:58:00,
2013-03-26 21:13:00,36.3,33.9,29.87,WSW,247,3.2,-999.0,91,-99.99,,,0.00,Acu-Link.com,2013-03-27 01:13:00,
2013-03-26 21:28:00,37.0,34.6,29.87,WSW,247,3.2,-999.0,91,-99.99,,,0.00,Acu-Link.com,2013-03-27 01:28:00,
2013-03-26 21:44:00,37.4,35.3,29.88,SSW,202,4.7,-999.0,92,-99.99,,,0.00,Acu-Link.com,2013-03-27 01:44:00,
2013-03-26 21:59:00,37.2,35.9,29.89,West,270,3.2,-999.0,95,-99.99,,,0.00,Acu-Link.com,2013-03-27 01:59:00,
2013-03-26 22:14:00,36.9,35.9,29.88,SW,225,4.7,-999.0,96,-99.99,,,0.00,Acu-Link.com,2013-03-27 02:14:00,
2013-03-26 22:29:00,37.0,36.5,29.89,WSW,247,2.2,-999.0,98,-99.99,,,0.00,Acu-Link.com,2013-03-27 02:29:00,
2013-03-26 22:45:00,36.9,36.4,29.90,South,180,2.7,-999.0,98,-99.99,,,0.00,Acu-Link.com,2013-03-27 02:45:00,
2013-03-26 23:00:00,36.7,36.2,29.89,South,180,1.1,-999.0,98,-99.99,,,0.00,Acu-Link.com,2013-03-27 03:00:00,
2013-03-26 23:15:00,36.9,36.1,29.90,East,90,1.1,-999.0,97,-99.99,,,0.00,Acu-Link.com,2013-03-27 03:15:00,
2013-03-26 23:31:00,36.7,36.2,29.90,SSW,202,3.7,-999.0,98,-99.99,,,0.00,Acu-Link.com,2013-03-27 03:31:00,